+ View the NASA Portal
+ Center for Near-Earth Object Studies
IMPORTANT:
The SSD Announcement email list is now available. Major changes are coming in the near future, including possible hostname and/or URL changes. To be notified of such changes, subscribe to this email list.
Please visit
this page
for more details.
Don't show this message again
JPL Small-Body Database Browser
Search:
[
help
]
266877 (2009 VP59)
Classification:
Main-belt Asteroid
SPK-ID:
2266877
[
Ephemeris
|
Orbit Diagram
|
Orbital Elements
|
Mission Design
|
Physical Parameters
|
Discovery Circumstances
|
Close-Approach Data
]
[ show orbit diagram ]
Orbital Elements at Epoch 2458600.5 (2019-Apr-27.0) TDB
Reference:
JPL 14
(heliocentric ecliptic J2000)
Element
Value
Uncertainty (1-sigma)
Units
e
.1214220886616713
5.4251e-08
a
3.089716565543371
4.2036e-08
au
q
2.714556726782529
1.8058e-07
au
i
3.888913437230851
6.7574e-06
deg
node
150.6388522372696
7.9186e-05
deg
peri
238.5881658312783
8.3332e-05
deg
M
282.2044229685682
2.6054e-05
deg
t
p
2459029.175629771134
(2020-Jun-28.67562977)
0.00014605
TDB
period
1983.701806791109
5.43
4.0483e-05
1.108e-07
d
yr
n
.1814788889981131
3.7036e-09
deg/d
Q
3.464876404304213
4.714e-08
au
Orbit Determination Parameters
# obs. used (total)
188
data-arc span
5825 days (15.95 yr)
first obs. used
2003-09-16
last obs. used
2019-08-28
planetary ephem.
DE431
SB-pert. ephem.
SB431-N16
condition code
0
norm. resid. RMS
.59999
source
ORB
producer
Otto Matic
solution date
2019-Sep-24 04:37:00
Additional Information
Earth MOID
= 1.72132 au
Jupiter MOID
= 1.98043 au
T_jup
= 3.210
[ show covariance matrix ]
[
Ephemeris
|
Orbit Diagram
|
Orbital Elements
|
Mission Design
|
Physical Parameters
|
Discovery Circumstances
|
Close-Approach Data
]
Physical Parameter Table
Parameter
Symbol
Value
Units
Sigma
Reference
Notes
absolute magnitude
H
16.2
n/a
MPO454983
diameter
diameter
3.564
km
1.085
urn:nasa:pds:neowise_diameters_albedos::2.0[mainbelt] (http://adsabs.harvard.edu/abs/2011ApJ...741...68M)
geometric albedo
albedo
0.050
0.030
urn:nasa:pds:neowise_diameters_albedos::2.0[mainbelt] (http://adsabs.harvard.edu/abs/2011ApJ...741...68M)
266877 (2009 VP59)
Discovered 2009-Nov-09 by CSS at Catalina
Reference:
20110218/Numbers.arc
Last Updated:
2011-02-22
[ show close-approach data ]
Alternate Designations
2009 VP59
= 2003 SB21
[
Ephemeris
|
Orbit Diagram
|
Orbital Elements
|
Mission Design
|
Physical Parameters
|
Discovery Circumstances
|
Close-Approach Data
]
2019-Dec-10 20:06 UT
(server date/time)
Site Manager:
Ryan S. Park
Webmaster
:
Alan B. Chamberlin